COSMOS 2251 DEB, 34451

Orbit data source: Space-Track

COSMOS 2251 DEB, 34451 is space debris in LEO originally from a launch on Wed, 16 Jun 1993 UTC launched from the Plesetsk Missile And Space Complex (PKMTR). The debris from Iridium 33, an American commercial communications satellite, has been tracked extensively since its accidental collision with the defunct Russian satellite Cosmos 2251 in 2009. This event, occurring at high speed in low Earth orbit (LEO), generated thousands of pieces of space debris, significantly increasing the risk of further collisions. The Iridium 33 debris cloud has impacted space traffic management and orbital debris mitigation strategies, making it a subject of ongoing study in space situational awareness.

Loading next visibility...
Identifier
34451, 1993-036SU
Orbit
LEO
Country
Flag of CISCIS
Related business
Manufacturer
Unknown
Mission
Spacecraft
Bus & Motor
Unknown
Mass
Unknown
Launch date (UTC)
1993-06-16 (32 years ago)
Launch vehicle
Unknown
Launch site
Plesetsk Missile And Space Complex (PKMTR)
Object type
Payload
Rocket body
Debris
Shape & HBR
Unknown shape, 0.1 m
Radar Cross Section
Small (<0.1 m²)

Expand to show TLE details & history
Last TLE update: 12 hours ago

TLE from 12 hours ago
0 COSMOS 2251 DEB
1 34451U 93036SU  25347.26943990  .00055616  00000-0  49379-2 0  9998
2 34451  74.0455  86.8001 0024262 105.6823 254.7041 14.95639964886436
Epoch: 2025-12-13T06:27Z
TLE epoch observation values (Epoch: 2025-12-13T06:27:59.607Z)
Latitude
-0.00001°
Longitude
-92.3974°
Altitude
587.563 km
Speed
7.564 km/s
True Right ascension
05h 47m 12s
True Declination
0° 00' 00"
Sunlit
Object was in full shadow at epoch
Visualization orbit readout
Latitude
Unknown
Longitude
Unknown
Altitude
Unknown
Speed
Unknown
Apparent Right ascension
Unknown
Apparent Declination
Unknown
Sunlit
N/A
Visualization observer readout
Local Sidereal Time
16:48:19
Azimuth
Unknown
Elevation
Unknown
Doppler factor
Unknown
Orbital elements
Apogee altitude
594.822 km
Perigee altitude
561.068 km
Semi-major axis
6,956.082 km
Eccentricity
0.00243
Inclination
74.0455°
RAAN
86.8001°
Arg. of periapsis
105.6823°
True anomaly
254.43614°
Mean anomaly
254.7041°
Eccentric anomaly
254.5701°
Mean motion
3.74107 °/min
Orbital period
96.23 mins
BSTAR
0.0049379

Documentation

Showing up to 5 results
|